Waterloo Airport
CYKF : now visible

Airfield :











YOU CAN JOIN US ON...

 
LOGIN :

Register | Disclaimer

   EN    FR    IT 

 









Legend :    VFR   Marginal VFR   IFR   Intensive IFR   Very Intensive IFR
Visi :
Ceiling :
>= 8 km
>= 3000ft
5 to 8 km
1000 to 3000 ft
1500m to 5 km
500 to 1000 ft
800 to 1500m
200 to 500 ft
< 800m
< 200 ft
Symbols :   Thunderstorms  Fog  Heavy snow  Heavy precipitations  Wind > 20 kt






- Airport Elevation : 1054 ft
- IATA code : YKF


CYKF - Waterloo

CURRENT METAR :
  • 220100Z AUTO 07002KT 9SM CLR M19/M21 A3051 RMK SLP370

EXPIRED METARs :
  • 220000Z AUTO 00000KT 9SM CLR M17/M19 A3052 RMK SLP372
  • 212300Z AUTO 14004KT 9SM CLR M14/M18 A3052 RMK SLP370

TAF TAF CYKF
Valid from the 22 at 02:00 until the 22 at 14:00 UTC


220140Z 2202/2214 VRB03KT P6SM SKC
FM220900 VRB03KT P6SM SCT015
TEMPO 2209/2214 P6SM -SHSN BKN015 RMK FCST BASED ON AUTO OBS. NXT FCST BY 220800Z
CZYZ FIR / North America



MET'MAP, your aeronautical weather chart ! - Copyright ORBIFLY December 2007 - Disclaimer

ORBIFLY MET'MAP TEAM :

Programming & Development : Alexandra Zaïnal
Concept & original design : Baudouin d'Aumeries
Assistance for programming : Marc-Olivier Méhu
Technical & hardware support : Manuel Goepfert

Contact : metmap@orbifly.com




SOURCES & CREDITS :

   NOAA       Earth
Advisory